Binghamton, NY

2:18 PM EST on December 06, 2019 (GMT -0500)
Binghamton Regional-Link

Weather History for KBGM - May, 2019

Change the Weather History Date:

Sunday, May 19, 2019

  Actual Average Record
Temperature  
Mean Temperature 69 °F 57 °F  
Max Temperature 83 °F 67 °F 87 °F (1962)
Min Temperature 54 °F 47 °F 31 °F (2002)
Degree Days  
Heating Degree Days 0 9  
Month to date heating degree days 220 218  
Since 1 July heating degree days 7010 7017  
Cooling Degree Days 4 1  
Month to date cooling degree days 4 7  
Year to date cooling degree days 4 11  
Growing Degree Days 18 (Base 50)    
Moisture  
Dew Point 57 °F    
Average Humidity 69    
Maximum Humidity 90    
Minimum Humidity 47    
Precipitation  
Precipitation 0.00 in 0.12 in 2.06 in (1988)
Month to date precipitation 3.79 2.09  
Year to date precipitation 15.27 13.27  
Snow  
Snow 0.00 in 0.00 in T in (2008)
Month to date snowfall 0.0 0.1  
Since 1 July snowfall 81.4 83.4  
Snow Depth 0.00 in    
Sea Level Pressure  
Sea Level Pressure 29.91 in    
Wind  
Wind Speed 11 mph (SSW)    
Max Wind Speed 21 mph    
Max Gust Speed 30 mph    
Visibility 10 miles    
Events      
T = Trace of Precipitation, MM = Missing Value Source: NWS Daily Summary

Daily Weather History Graph

Daily Weather History Graph

Search for Another Location

Airport or City:

Astronomy

May. 19, 2019 Rise Set
Actual Time 5:39 AM EDT 8:22 PM EDT
Civil Twilight 5:06 AM EDT 8:54 PM EDT
Nautical Twilight 4:26 AM EDT 9:35 PM EDT
Astronomical Twilight 3:39 AM EDT 10:22 PM EDT
Moon 9:19 PM EDT (5/19) 6:23 AM EDT (5/19)
Length of Visible Light 15h 47m
Length of Day
14h 42m
Full, 99% of the Moon is Illuminated
May 19
Full
May 26
Last Quarter
Jun 3
New
Jun 10
First Quarter
Jun 17
Full

Hourly Weather History & Observations

Time (EDT) Temp. Heat Index Dew Point Humidity Pressure Visibility Wind Dir Wind Speed Gust Speed Precip Events Conditions
12:53 AM 55.0 °F - 39.9 °F 57% 30.01 in 10.0 mi SSE 4.6 mph - N/A   Clear
1:53 AM 55.0 °F - 42.1 °F 62% 30.00 in 10.0 mi South 5.8 mph - N/A   Mostly Cloudy
2:53 AM 57.0 °F - 44.1 °F 62% 29.98 in 10.0 mi SSE 5.8 mph - N/A   Mostly Cloudy
3:53 AM 57.9 °F - 48.0 °F 70% 29.97 in 10.0 mi South 4.6 mph - N/A   Scattered Clouds
4:53 AM 57.0 °F - 51.1 °F 81% 29.96 in 10.0 mi South 6.9 mph - N/A   Clear
5:53 AM 59.0 °F - 54.0 °F 83% 29.97 in 10.0 mi SSW 8.1 mph - N/A   Mostly Cloudy
6:53 AM 61.0 °F - 57.0 °F 87% 29.98 in 9.0 mi SSW 8.1 mph - N/A   Mostly Cloudy
7:53 AM 63.0 °F - 59.0 °F 87% 29.98 in 10.0 mi SSW 6.9 mph - N/A   Scattered Clouds
8:53 AM 66.9 °F - 60.1 °F 79% 29.98 in 10.0 mi SSW 8.1 mph - N/A   Mostly Cloudy
9:53 AM 70.0 °F - 61.0 °F 73% 29.97 in 10.0 mi SW 11.5 mph - N/A   Clear
10:53 AM 73.9 °F - 61.0 °F 64% 29.96 in 10.0 mi SW 9.2 mph - N/A   Clear
11:53 AM 78.1 °F - 62.1 °F 58% 29.94 in 10.0 mi SSW 10.4 mph - N/A   Partly Cloudy
12:53 PM 79.0 °F - 61.0 °F 54% 29.92 in 10.0 mi SSW 12.7 mph - N/A   Scattered Clouds
1:53 PM 81.0 °F 81.9 °F 62.1 °F 52% 29.90 in 10.0 mi SW 10.4 mph 23.0 mph N/A   Clear
2:53 PM 82.0 °F 82.7 °F 61.0 °F 49% 29.87 in 10.0 mi SW 9.2 mph 20.7 mph N/A   Partly Cloudy
3:53 PM 82.0 °F 82.7 °F 61.0 °F 49% 29.84 in 10.0 mi SSW 15.0 mph 23.0 mph N/A   Mostly Cloudy
4:53 PM 80.1 °F 80.9 °F 60.1 °F 50% 29.82 in 10.0 mi SSW 13.8 mph 23.0 mph N/A   Mostly Cloudy
5:53 PM 79.0 °F - 60.1 °F 52% 29.82 in 10.0 mi SW 16.1 mph 23.0 mph N/A   Partly Cloudy
6:53 PM 77.0 °F - 60.1 °F 56% 29.80 in 10.0 mi SW 16.1 mph 20.7 mph N/A   Clear
7:53 PM 75.9 °F - 61.0 °F 60% 29.81 in 10.0 mi SSW 12.7 mph 25.3 mph N/A   Scattered Clouds
8:53 PM 73.0 °F - 61.0 °F 66% 29.81 in 10.0 mi SSW 11.5 mph 18.4 mph N/A   Clear
9:53 PM 70.0 °F - 61.0 °F 73% 29.81 in 10.0 mi SSW 13.8 mph 23.0 mph N/A   Partly Cloudy
10:53 PM 69.1 °F - 61.0 °F 75% 29.81 in 10.0 mi SW 15.0 mph 28.8 mph N/A   Partly Cloudy
11:53 PM 68.0 °F - 59.0 °F 73% 29.79 in 10.0 mi SW 10.4 mph - N/A   Clear